STARLINK-1598, 46160

Orbit data source: Space-Track

STARLINK-1598, 46160 is a payload satellite owned by SpaceX/Seattle (US) in LEO that was launched on Tue, 18 Aug 2020 UTC via an FALCON 9 launch vehicle from the Air Force Eastern Test Range (AFETR). Payload-class satellites include a variety of spacecraft equipped with specific instruments for various scientific and technological missions. These include communications satellites like Starlink; space stations such as the ISS; scientific satellites like the Hubble; Earth observation satellites from companies like Planet Labs, Umbra, and HawkEye 360; GPS; miniature CubeSats for education and research; and military/defense satellites.

Loading next visibility...
Identifier
46160, 2020-057AV
Orbit
LEO
Country
Flag of USUS
Related business
Manufacturer
SpaceX/Seattle
Mission
Operational Commercial Communications
Bus & Motor
STARLINK, Unknown motor
Mass
260 kg wet, ~248 kg dry
Launch date (UTC)
2020-08-18 (5 years ago)
Launch vehicle
FALCON 9
Launch site
Air Force Eastern Test Range (AFETR)
Object type
Payload
Rocket body
Debris
Shape & HBR
Box + 1 Pan, 10.1 m
Radar Cross Section
13.562 m², Large (>1 m²)

Expand to show TLE details & history
Last TLE update: 1 day ago

TLE from 1 day ago
0 STARLINK-1598
1 46160U 20057AV  25286.59635304  .00007074  00000-0  49336-3 0  9995
2 46160  53.0532 236.9432 0002278  99.5153 260.6093 15.06395062285421
Epoch: 2025-10-13T14:18Z
TLE epoch observation values (Epoch: 2025-10-13T14:18:44.902Z)
Latitude
-0.00007°
Longitude
-0.14081°
Altitude
548.363 km
Speed
7.589 km/s
True Right ascension
15h 47m 46s
True Declination
0° 00' 00"
Sunlit
Object was in daylight at epoch
Visualization orbit readout
Latitude
Unknown
Longitude
Unknown
Altitude
Unknown
Speed
Unknown
Apparent Right ascension
Unknown
Apparent Declination
Unknown
Sunlit
N/A
Visualization observer readout
Local Sidereal Time
11:31:10
Azimuth
Unknown
Elevation
Unknown
Doppler factor
Unknown
Orbital elements
Apogee altitude
549.075 km
Perigee altitude
545.92 km
Semi-major axis
6,925.635 km
Eccentricity
0.00023
Inclination
53.0532°
RAAN
236.9432°
Arg. of periapsis
99.5153°
True anomaly
260.58355°
Mean anomaly
260.6093°
Eccentric anomaly
260.59642°
Mean motion
3.76577 °/min
Orbital period
95.6 mins
BSTAR
0.00049336
Loading maneuver chart data...
Computing Atmospheric mass density...
Loading historical data...
Loading historical data...
Loading historical data...
Loading historical data...
Loading historical data...
Loading historical data...
Loading historical data...

Documentation

Showing up to 5 results
|